Location: Cran-Gévrier
(45.9039°N, 6.1012°E)
Time: 10:24:34
(UTC+00:00)

Cosmos 1386 Rocket - Pass Details

Date: 09 February 2023
Orbit: 930 x 1005 km, 83.0° (Epoch: 30 March)

Event Time Altitude Azimuth Distance (km) Brightness Sun altitude
Rises 18:04:51 0° 351° (N) 3,595 7.5 -13.0°
Reaches altitude 10° 18:07:19 10° 351° (N) 2,650 6.8 -13.4°
Maximum altitude 18:13:22 88° 266° (W) 946 4.4 -14.5°
Drops below altitude 10° 18:19:28 10° 175° (S) 2,664 6.8 -15.5°
Sets 18:21:57 0° 175° (S) 3,615 7.5 -16.0°
